Location: Peebles
(55.6412°N, 3.1714°W)
Time: 22:40:30
(UTC+01:00)

CENTAUR R/B - Pass Details

Date: 22 January 2022
Orbit: 716 x 1471 km, 63.4° (Epoch: 08 May)

Event Time Altitude Azimuth Distance (km) Brightness Sun altitude
Rises 18:24:15 0° 245° (WSW) 3,529 7.0 -16.0°
Reaches altitude 10° 18:26:36 10° 249° (WSW) 2,683 6.1 -16.3°
Maximum altitude 18:32:56 67° 332° (NNW) 1,182 3.0 -17.2°
Enters shadow 18:38:19 21° 51° (NE) 2,447 4.1 -18.0°
